This demonstration page uses our WeatherBlox Daily Observations layout. Learn more.

Left ArrowRight Arrow

39.92423, -83.80882

Hourly Observations for January 5, 2021

Temp ( °F °C ) Dew Point ( °F °C ) Humidity (%) Winds ( mph kmh ) Pressure ( in mb ) Visibility ( mi km ) Precip ( " mm )
12:56 am 00:56 Clear 28 -2.2 28 -2.2 100 100 SE 6 9 29.93 1014 7 11.26538 0 0
1:24 am 01:24 Mostly Cloudy 28 -2 28 -2 100 100 SE 5 7 29.96 1015 7 11.26538 0 0
1:46 am 01:46 Cloudy with Mist and Fog 27 -3 27 -3 100 100 ESE 5 7 29.97 1015 6 9.65604 0 0
1:56 am 01:56 Cloudy with Mist and Fog 28 -2.2 28 -2.2 100 100 ESE 6 9 29.93 1014 6 9.65604 0 0
2:05 am 02:05 Cloudy with Mist and Fog 28 -2 28 -2 100 100 ESE 3 6 29.96 1015 6 9.65604 0 0
2:56 am 02:56 Cloudy with Mist and Fog 29 -1.7 29 -1.7 100 100 E 3 6 29.94 1014 5 8.0467 0 0
3:56 am 03:56 Cloudy with Mist and Fog 30 -1.1 30 -1.1 100 100 ESE 3 6 29.93 1014 5 8.0467 0 0
4:54 am 04:54 Mostly Cloudy with Mist and Fog 30 -1 30 -1 100 100 Calm 29.95 1014 6 9.65604 0 0
4:56 am 04:56 Mostly Cloudy with Mist and Fog 30 -1.1 30 -1.1 100 100 Calm 29.93 1014 6 9.65604 0 0
5:04 am 05:04 Mostly Cloudy with Mist and Fog 30 -1 30 -1 100 100 Calm 29.96 1014 6 9.65604 0 0
5:56 am 05:56 Cloudy with Mist and Fog 32 0 32 0 100 100 Calm 29.94 1014 5 8.0467 0 0
6:56 am 06:56 Cloudy with Mist and Fog 32 0 32 0 100 100 SW 3 6 29.95 1014 5 8.0467 0 0
7:07 am 07:07 Cloudy with Mist and Fog 32 0 32 0 100 100 SW 3 6 29.97 1015 6 9.65604 0 0
7:44 am 07:44 Cloudy with Light Wintry Mix 34 1 34 1 100 100 W 8 13 29.99 1016 7 11.26538 0.001 0.001
7:51 am 07:51 Cloudy with Light Snow 34 1 34 1 100 100 WNW 8 13 29.99 1016 6 9.65604 0.001 0.001
7:56 am 07:56 Cloudy with Light Snow 33 0.6 33 0.6 100 100 WNW 9 15 29.98 1015 5 8.0467 0.001 0.001
8:11 am 08:11 Cloudy with Light Snow 32 0 32 0 100 100 WNW 10 17 30 1016 2 3.21868 0.001 0.001
8:18 am 08:18 Cloudy with Light Snow 32 0 32 0 100 100 WNW 9 15 30 1016 1.75 2.816345 0.001 0.001
8:28 am 08:28 Cloudy with Light Snow 32 0 32 0 100 100 WNW 10 17 30.01 1016 1 1.60934 0.001 0.001
8:56 am 08:56 Cloudy with Light Snow 33 0.6 33 0.6 100 100 NW 9 15 30.01 1016 1 1.60934 0.01 0.254
9:18 am 09:18 Cloudy with Light Snow 34 1 34 1 100 100 NW 10 17 30.03 1017 1.25 2.011675 0.001 0.001
9:39 am 09:39 Cloudy with Light Snow 34 1 34 1 100 100 WNW 8 13 30.04 1017 3 4.82802 0.001 0.001
9:56 am 09:56 Cloudy with Light Rain 32 0 32 0 100 100 WNW 10 17 30.04 1017 4 6.43736 0.001 0.001
10:33 am 10:33 Cloudy with Light Wintry Mix 32 0 32 0 100 100 NW 14 22 30.05 1018 4 6.43736 0.001 0.001
10:56 am 10:56 Cloudy with Light Wintry Mix 32 0 32 0 100 100 WNW 16 26 30.05 1018 2.5 4.02335 0.001 0.001
11:15 am 11:15 Cloudy with Light Snow 30 -1 30 -1 100 100 WNW 16 26 30.07 1018 1.75 2.816345 0.001 0.001
11:24 am 11:24 Cloudy with Light Snow 30 -1 30 -1 100 100 WNW 14 22 30.07 1018 2.5 4.02335 0.001 0.001
11:41 am 11:41 Cloudy with Light Snow 30 -1 30 -1 100 100 WNW 14 22 30.07 1018 3 4.82802 0.001 0.001
11:56 am 11:56 Cloudy with Light Snow 31 -0.6 31 -0.6 100 100 WNW 16 26 30.05 1018 3 4.82802 0.001 0.001
12:05 pm 12:05 Cloudy with Light Snow 30 -1 30 -1 100 100 NW 13 20 30.07 1018 2.5 4.02335 0.001 0.001
12:38 pm 12:38 Cloudy with Light Snow 30 -1 30 -1 100 100 WNW 13 20 30.07 1018 3 4.82802 0.001 0.001
12:56 pm 12:56 Cloudy with Mist and Fog 31 -0.6 31 -0.6 100 100 WNW 16 26 30.05 1018 5 8.0467 0.001 0.001
1:56 pm 13:56 Cloudy with Mist and Fog 32 0 32 0 100 100 WNW 12 19 30.06 1018 6 9.65604 0 0
2:31 pm 14:31 Cloudy with Mist and Fog 32 0 32 0 100 100 WNW 12 19 30.07 1018 6 9.65604 0 0
2:56 pm 14:56 Cloudy 32 0 32 0 100 100 NW 13 20 30.07 1018 7 11.26538 0 0
3:56 pm 15:56 Cloudy with Mist and Fog 33 0.6 33 0.6 100 100 WNW 8 13 30.1 1019 4 6.43736 0 0
4:32 pm 16:32 Cloudy with Mist and Fog 34 1 34 1 100 100 WNW 10 17 30.13 1020 5 8.0467 0 0
4:56 pm 16:56 Cloudy 33 0.6 33 0.6 100 100 WNW 10 17 30.12 1020 7 11.26538 0 0
5:56 pm 17:56 Cloudy 33 0.6 33 0.6 100 100 W 9 15 30.14 1021 9 14.48406 0 0
6:56 pm 18:56 Cloudy with Light Wintry Mix 33 0.6 33 0.6 100 100 W 9 15 30.16 1022 5 8.0467 0.001 0.001
7:56 pm 19:56 Cloudy 33 0.6 33 0.6 100 100 WNW 10 17 30.19 1022 7 11.26538 0.001 0.001
8:56 pm 20:56 Cloudy 33 0.6 33 0.6 100 100 WNW 10 17 30.19 1023 7 11.26538 0 0
9:56 pm 21:56 Cloudy 33 0.6 33 0.6 100 100 WNW 10 17 30.2 1023 7 11.26538 0 0
10:34 pm 22:34 Cloudy with Light Rain 34 1 34 1 100 100 WNW 10 17 30.21 1023 7 11.26538 0.001 0.001
10:56 pm 22:56 Cloudy 33 0.6 33 0.6 100 100 WNW 8 13 30.21 1023 7 11.26538 0.001 0.001
11:03 pm 23:03 Cloudy with Mist and Fog 34 1 34 1 100 100 WNW 7 11 30.22 1023 6 9.65604 0 0
11:56 pm 23:56 Cloudy with Light Rain 33 0.6 33 0.6 100 100 WNW 9 15 30.22 1023 6 9.65604 0.001 0.001

Powered by AerisWeather